Regional Weather Roundup
Issued by NWS

Home | Current Version | Previous Version | Text Only | Print | Product List | Glossary Off
Versions: 1 2 3 4 5 6 7 8 9 10 11 12 13 14 15 16 17 18 19 20 21 22 23 24 25 26 27 28 29 30 31 32 33 34 35 36 37 38 39 40 41 42 43 44 45 46 47 48 49 50

000
ASUS43 KMPX 290610
RWRMN
WEATHER ROUNDUP FOR MINNESOTA
NATIONAL WEATHER SERVICE TWIN CITIES/CHANHASSEN MN
1200 AM CST THU JAN 29 2015


NOTE: "FAIR" INDICATES FEW OR NO CLOUDS BELOW 12,000 FEET WITH NO
SIGNIFICANT WEATHER AND/OR OBSTRUCTIONS TO VISIBILITY. N/A MEANS
CURRENT SKY AND/OR WEATHER CONDITIONS ARE NOT AVAILABLE.

MNZ060>063-068>070-290700-
   Twin Cities Metro

CITY           SKY/WX    TMP DP  RH WIND       PRES   REMARKS
TWIN CITIES    CLOUDY    30  28  92 NW9       29.87R FOG     WCI  22
6HR MIN TEMP:  30; 6HR MAX TEMP:  31; 6HR PCP: TRACE;

ST PAUL        CLOUDY    30  29  96 NW10      29.88R FOG     WCI  21
CRYSTAL        CLOUDY    31  29  92 NW8       29.87R FOG     WCI  23
BLAINE         CLOUDY    32  32 100 NW8       29.87R FOG     WCI  25
LAKEVILLE      CLOUDY    28  28 100 NW8       29.86R FOG     WCI  20
EDEN PRAIRIE   CLOUDY    31  29  92 NW8       29.87R FOG     WCI  23
6HR MIN TEMP:  31; 6HR MAX TEMP:  32;

SOUTH ST PAUL  CLOUDY    31  30  95 NW7       29.87R FOG     WCI  25
LAKE ELMO      CLOUDY    32  30  93 NW5       29.87R FOG     WCI  27
$$
MNZ001>005-007-008-013>017-022>024-027-028-290700-
   Northwest Minnesota

CITY           SKY/WX    TMP DP  RH WIND       PRES   REMARKS
BEMIDJI        CLOUDY    30  29  95 NW15      29.92R WCI  19
HALLOCK        CLOUDY    18  14  86 NW22G28   30.11R WCI   0
ROSEAU         CLOUDY    25  21  86 NW18G24   30.01R WCI  11
WARROAD        CLOUDY    25  19  80 NW15G24   30.00R WCI  12
THIEF RVR FALL CLOUDY    21  19  93 NW20      30.04R WCI   6
CROOKSTON      CLOUDY    21  19  93 N21G28    30.10R WCI   6
FOSSTON        CLOUDY    21  21 100 NW17G26   30.01R FOG     WCI   7
DETROIT LAKES  CLOUDY    27  27 100 NW24      30.00R FOG     WCI  12
MOORHEAD       CLOUDY    28  28 100 N23G30    30.07R WCI  14
PARK RAPIDS    CLOUDY    31  29  92 NW16      29.91R WCI  20
MAHNOMEN       CLOUDY    24  23  97 NW22G28   30.02R FOG     WCI   9
$$
MNZ006-009>011-018-025>026-290700-
   North Central Minnesota

CITY           SKY/WX    TMP DP  RH WIND       PRES   REMARKS
BAUDETTE       CLOUDY    29  24  82 NW15      29.93R WCI  18
FLAG ISLAND    CLOUDY    27  23  86 NW28      29.96R WCI  11
INTL FALLS     CLOUDY    28  24  85 NW13      29.87R WCI  17
6HR MIN TEMP:  27; 6HR MAX TEMP:  29; 6HR PCP: TRACE;

WASKISH        CLOUDY    30  28  93 NW9G16    29.93R WCI  22
BIG FORK       CLOUDY    30  27  86 NW9       29.87R WCI  22
LONGVILLE      MIX PCPN  32  30  93 NW12      29.87R WCI  23
GRAND RAPIDS   CLOUDY    30  28  93 CALM      29.84R
CRANE LAKE     CLOUDY    27  25  93 NW3       29.85S FOG
ORR            CLOUDY    28  27  93 NW12      29.81S FOG     WCI  18
COOK           CLOUDY    27  27 100 W6        29.83R FOG     WCI  20
WALKER         LGT SNOW  31  30  94 NW9       29.90R WCI  23
$$
MNZ012-019>021-037-290700-
   Northeast Minnesota

CITY           SKY/WX    TMP DP  RH WIND       PRES   REMARKS
DULUTH         FRZ DRZL  28  25  88 NW9       29.81R FOG     WCI  19
6HR MIN TEMP:  28; 6HR MAX TEMP:  29; 6HR PCP: TRACE;

ELY            CLOUDY    27  25  93 W5        29.80S FOG     WCI  21
HIBBING        CLOUDY    30  26  85 NW10G16   29.82S WCI  21
EVELETH        CLOUDY    28  28 100 CALM      29.83S FOG
DULUTH HARBOR  CLOUDY    30  28  93 CALM      29.86S
TWO HARBORS    CLOUDY    30  27  86 W7        29.80S HAZE    WCI  23
SILVER BAY     CLOUDY    28  27  93 CALM      29.79S FOG
GRAND MARAIS     N/A     30  25  81 W5        29.80F WCI  25
G MARAIS ARPRT   N/A     25  19  80 NW6       29.75F FOG     WCI  18
$$
MNZ029>031-032-039>041-046>048-054>057-064-290700-
   West Central Minnesota

CITY           SKY/WX    TMP DP  RH WIND       PRES   REMARKS
FERGUS FALLS   CLOUDY    28  27  93 NW24G35   30.04R WCI  14
WHEATON        CLOUDY    28  27  93 NW23G31   30.06R WCI  14
MORRIS         CLOUDY    30  28  93 NW31G39   29.98R WCI  15
ALEXANDRIA     CLOUDY    31  29  92 NW17G26   29.94R WCI  19
ELBOW LAKE     CLOUDY    29  28  94 NW22G30   29.99R WCI  16
WADENA         CLOUDY    30  28  93 NW13      29.93R WCI  20
GLENWOOD       CLOUDY    32  30  93 NW17G26   29.94R WCI  21
APPLETON       CLOUDY    34  30  86 NW23G36   30.00R WCI  22
BENSON         CLOUDY    32  30  93 N30G38    29.97R WCI  18
ORTONVILLE     CLOUDY    30  28  93 NW23G31   30.02R WCI  17
MADISON        CLOUDY    36  34  93 NW26G38   30.01R
WILLMAR        CLOUDY    34  32  93 NW15G22   29.94R WCI  24
$$
MNZ033>034-036-042>043-049>051-058-059-290700-
   Central Minnesota

CITY           SKY/WX    TMP DP  RH WIND       PRES   REMARKS
ST CLOUD       CLOUDY    30  29  96 NW7       29.88R FOG     WCI  23
6HR MIN TEMP:  29; 6HR MAX TEMP:  30;

SAUK CENTRE    CLOUDY    32  30  94 NW15      29.91R WCI  22
PAYNESVILLE    CLOUDY    30  30 100 W9        29.91R FOG     WCI  22
AITKIN         CLOUDY    32  27  80 CALM      29.85R HAZE
PINE RIVER     CLOUDY    32  32 100 NW8       29.92R WCI  25
BRAINERD       CLOUDY    30  29  96 W8        29.88R FOG     WCI  22
STAPLES        CLOUDY    30  30 100 NW10      29.91R WCI  21
LONG PRAIRIE   CLOUDY    32  30  93 NW15G21   29.91R WCI  22
LITTLE FALLS   CLOUDY    32  30  93 W5        29.89S FOG     WCI  27
LITCHFIELD     CLOUDY    32  32 100 NW7       29.90S FOG     WCI  26
BUFFALO        CLOUDY    30  29  95 W6        29.90R FOG     WCI  24
MAPLE LAKE     CLOUDY    31  31  99 W6        29.90R FOG     WCI  26
$$
MNZ037-044-045-052-053-290700-
   East Central Minnesota

CITY           SKY/WX    TMP DP  RH WIND       PRES   REMARKS
PRINCETON      CLOUDY    30  28  93 W8        29.88S FOG     WCI  23
MORA           CLOUDY    28  28 100 NW5       29.88R WCI  23
CAMBRIDGE      CLOUDY    30  25  80 NW6       29.86R HAZE    WCI  24
RUSH CITY      CLOUDY    29  28  96 NW6       29.87R FOG     WCI  23
MOOSE LAKE     CLOUDY    30  28  93 W3        29.83S FOG
HINCKLEY       CLOUDY    30  30 100 W5        29.86R FOG     WCI  25
CLOQUET        CLOUDY    28  27  93 W7        29.83R FOG     WCI  21
MCGREGOR       CLOUDY    30  30 100 W6        29.86R WCI  24
$$
MNZ071>073-080-081-089-090-097-098-290700-
   Southwest Minnesota

CITY           SKY/WX    TMP DP  RH WIND       PRES   REMARKS
MONTEVIDEO     CLOUDY    32  32 100 N25G36    29.98R WCI  19
GRANITE FALLS  CLOUDY    32  31  94 NW24      29.98R WCI  19
CANBY          CLOUDY    32  31  96 NW23G30   30.01R WCI  19
MARSHALL       CLOUDY    34  27  75 N30G43    29.98R WCI  20
REDWOOD FALLS  CLOUDY    34  32  92 NW13G23   29.93R FOG     WCI  25
OLIVIA         CLOUDY    32  32 100 NW15G21   29.92R FOG     WCI  22
PIPESTONE      CLOUDY    34  30  86 N22G33    29.97R WCI  22
WINDOM         CLOUDY    34  34 100 NW28G33   29.91R FOG     WCI  20
WORTHINGTON    CLOUDY   N/A N/A N/A N30G36    29.93R
JACKSON        CLOUDY    34  32  93 NW23G33   29.90R FOG     WCI  22
TRACY          CLOUDY    33  32  95 N22G30    29.95R FOG     WCI  21
SLAYTON        CLOUDY    32  31  95 NW24G35   29.94R WCI  19
$$
MNZ065>067-074>077-082>085-091>093-290700-
   South Central Minnesota

CITY           SKY/WX    TMP DP  RH WIND       PRES   REMARKS
MANKATO        CLOUDY    32  28  86 NW15      29.88R WCI  22
NEW ULM        CLOUDY    32  32 100 NW12      29.91R FOG     WCI  23
FAIRMONT       CLOUDY    34  28  80 NW20G26   29.87R WCI  22
GLENCOE        CLOUDY    32  32 100 NW9       29.89R FOG     WCI  24
FARIBAULT      CLOUDY    30  30 100 NW10      29.86R FOG     WCI  21
OWATONNA       CLOUDY    32  30  93 NW13      29.84R FOG     WCI  22
WASECA         CLOUDY    32  32 100 NW16      29.87R FOG     WCI  21
ALBERT LEA     CLOUDY    34  34 100 N10G16    29.83R FOG     WCI  26
$$
MNZ078>079-086>088-094>096-290700-
   Southeast Minnesota

CITY           SKY/WX    TMP DP  RH WIND       PRES   REMARKS
ROCHESTER      MIX PCPN  31  29  92 N9        29.80S FOG     WCI  23
6HR MIN TEMP:  31; 6HR MAX TEMP:  33; 6HR PCP: TRACE;

RED WING       CLOUDY    30  30 100 NW5       29.84R FOG     WCI  25
STANTON        CLOUDY    32  30  93 N9        29.84R WCI  24
DODGE CENTER   FOG       32  32 100 N8        29.81R VSB 1/2 WCI  25
WINONA         CLOUDY    34  28  80 CALM      29.82S
AUSTIN         CLOUDY    32  30  93 NW8       29.81R FOG     WCI  25
PRESTON        CLOUDY    30  28  93 N7        29.79R FOG     WCI  23
$$
ABBREVIATIONS USED IN REMARKS
   TC - TEMPERATURES IN CELSIUS
  WCI - WIND CHILL INDEX
   HX - HEAT INDEX
  VSB - VISIBILITY
$$



USA.gov is the U.S. government's official web portal to all federal, state and local government web resources and services.